Flag for Cote d'Ivoire (Ivory Coast) Weather past 2 weeks in Abidjan, Cote d'Ivoire (Ivory Coast)

Now
75 °F

Thunderstorms. Partly cloudy.


Feels Like: 74 °F
Forecast: 81 / 89 °F
Wind: 7 mph from Northwest

Location: Abidjan Airport


UV Index: 3 (Moderate)

Visibility: 5 mi


Pressure: 29.80 "Hg

Humidity: 94%

Dew point: 73 °F

Location of AbidjanLocation

Historic Weather in Abidjan

°F

Abidjan temperature yesterday

Maximum temperature yesterday: 91 °F (at 1:30 PM)
Minimum temperature yesterday: 81 °F (at 1:30 AM)
Average temperature yesterday: 85 °F

Past Weeks' High & Low Weather Summary

 TemperatureHumidityPressure
High91 °F (Apr 20, 1:30 PM)100% (Apr 9, 4:00 AM)29.98 "Hg (Apr 9, 4:00 AM)
Low72 °F (Apr 11, 9:00 PM)55% (Apr 11, 1:00 PM)29.74 "Hg (Apr 13, 4:00 PM)
Average83 °F81%29.85 "Hg
* Reported Apr 6 1:00 AM — Apr 21 1:00 AM, Abidjan, Weather by CustomWeather, © 2014

Note: Actual official high and low records may vary slightly from our data, if they occured in-between our weather recording intervals... More about our weather records

Advertising

Historic Weather Conditions — Data for Previous 24 hours

 ConditionsComfort  
Time TempWeatherWind HumidityBarometerVisibility
1:00 AM
Apr 21
75 °FThunderstorms. Passing clouds.6 mph94%29.83 "Hg4 mi
12:30 AM73 °FThunderstorms. Passing clouds.3 mph100%29.83 "Hg4 mi
12:00 AM73 °FPassing clouds.10 mph100%29.86 "Hg4 mi
11:30 PM
Apr 20
81 °FThunderstorms. Passing clouds.21 mph70%29.92 "HgN/A
11:00 PM84 °FThunderstorms. Passing clouds.7 mph84%29.86 "HgN/A
10:30 PM84 °FThunderstorms. Passing clouds.9 mph84%29.86 "HgN/A
10:00 PM84 °FThunderstorms. Passing clouds.8 mph84%29.86 "HgN/A
9:00 PM84 °FThunderstorms. Passing clouds.10 mph84%29.83 "HgN/A
8:30 PM84 °FPassing clouds.12 mph79%29.80 "HgN/A
8:00 PM84 °FPassing clouds.10 mph79%29.80 "HgN/A
7:30 PM84 °FPassing clouds.10 mph79%29.80 "HgN/A
7:00 PM84 °FPassing clouds.13 mph79%29.77 "HgN/A
6:30 PM84 °FPassing clouds.13 mph79%29.77 "HgN/A
6:00 PM86 °FPassing clouds.14 mph79%29.74 "HgN/A
5:30 PM86 °FPassing clouds.14 mph79%29.74 "HgN/A
5:00 PM86 °FPassing clouds.16 mph79%29.74 "HgN/A
4:30 PM88 °FPassing clouds.15 mph75%29.74 "HgN/A
4:00 PM88 °FPassing clouds.16 mph75%29.74 "HgN/A
3:30 PM88 °FPassing clouds.16 mph70%29.77 "HgN/A
3:00 PM90 °FPassing clouds.15 mph71%29.77 "HgN/A
2:30 PM90 °FPassing clouds.14 mph71%29.80 "HgN/A
2:00 PM90 °FPassing clouds.15 mph67%29.80 "HgN/A
1:30 PM91 °FPassing clouds.13 mph59%29.83 "HgN/A
1:00 PM90 °FPassing clouds.13 mph67%29.83 "HgN/A
12:30 PM90 °FScattered clouds.10 mph67%29.86 "HgN/A
12:00 PM88 °FScattered clouds.10 mph75%29.86 "HgN/A
11:30 AM88 °FScattered clouds.10 mph70%29.86 "HgN/A
11:00 AM88 °FScattered clouds.9 mph75%29.89 "HgN/A
10:30 AM88 °FScattered clouds.7 mph75%29.89 "HgN/A
10:00 AM88 °FScattered clouds.8 mph75%29.89 "HgN/A
9:30 AM86 °FScattered clouds.8 mph79%29.89 "HgN/A
9:00 AM86 °FScattered clouds.9 mph79%29.86 "HgN/A
8:30 AM86 °FPassing clouds.8 mph79%29.86 "HgN/A
8:00 AM84 °FPassing clouds.6 mph84%29.86 "HgN/A
7:30 AM84 °FPassing clouds.3 mph84%29.86 "HgN/A
7:00 AM81 °FPassing clouds.1 mph94%29.86 "HgN/A
6:30 AM81 °FPassing clouds.1 mph89%29.83 "HgN/A
6:00 AM81 °FPassing clouds.1 mph89%29.83 "HgN/A
5:30 AM81 °FPassing clouds.2 mph89%29.83 "HgN/A
5:00 AM81 °FPassing clouds.3 mph94%29.83 "HgN/A
4:30 AM81 °FPassing clouds.3 mph94%29.83 "HgN/A
4:00 AM81 °FPassing clouds.3 mph89%29.83 "HgN/A
3:30 AM81 °FPassing clouds.5 mph89%29.83 "HgN/A
3:00 AM81 °FPassing clouds.2 mph94%29.83 "HgN/A
2:30 AM81 °FPassing clouds.1 mph94%29.86 "HgN/A
2:00 AM81 °FPassing clouds.1 mph94%29.86 "HgN/A
1:30 AM81 °FPassing clouds.1 mph89%29.86 "HgN/A
1:00 AM82 °FPassing clouds.2 mph84%29.86 "HgN/A
Weather by CustomWeather, © 2014

See weather overview